Stations météo

réclame
Mon MeteoGroup
Koksijde, Belgique (6400): Température de l'air & dewpoint: 26.05.2020 01:00:00 - 01.06.2020 01:00:00 (CEST)Koksijde, Belgique (6400): Vitesse du vent & gusts: 26.05.2020 01:00:00 - 01.06.2020 01:00:00 (CEST)Koksijde, Belgique (6400): Direction du vent: 26.05.2020 01:00:00 - 01.06.2020 01:00:00 (CEST)Koksijde, Belgique (6400): reduced air pressure: 26.05.2020 01:00:00 - 01.06.2020 01:00:00 (CEST)Koksijde, Belgique (6400): visibility: 26.05.2020 01:00:00 - 01.06.2020 01:00:00 (CEST)
Date & Time tt [°C] td [°C] ff [km/h] ff [knt] fx [km/h] fx [knt] dd ppp [hPa] vv [km]
01.06.2020 01:00:00 14,1 11,3 11 6 18 10 NE 1021,8 20
01.06.2020 00:00:00 14,8 12,1 14 8 22 12 NNE 1021,7 20
31.05.2020 23:00:00 15,4 11,5 14 8 - - NNE 1021,6 20
31.05.2020 22:00:00 15,7 11,6 22 12 36 19 NNE 1021,3 20
31.05.2020 21:00:00 16,6 11,1 25 14 43 23 NNE 1021,2 20
31.05.2020 20:00:00 17,4 10,7 29 16 - - NNE 1020,8 20
31.05.2020 19:00:00 18,2 10,2 32 18 50 27 NNE 1021,0 20
31.05.2020 18:00:00 19,5 9,6 36 19 47 25 NNE 1021,0 20
31.05.2020 17:00:00 19,7 9,5 32 18 - - NNE 1021,2 20
31.05.2020 16:00:00 20,2 10,2 32 18 47 25 NNE 1021,6 15
31.05.2020 15:00:00 19,8 10,0 32 18 50 27 NNE 1021,7 15
31.05.2020 14:00:00 21,1 8,2 32 18 - - NNE 1021,8 20
31.05.2020 13:00:00 20,6 8,1 29 16 43 23 NNE 1022,1 20
31.05.2020 12:00:00 21,1 6,9 25 14 36 19 NE 1022,3 19
31.05.2020 11:00:00 20,8 5,8 18 10 - - ENE 1022,6 20
31.05.2020 10:00:00 19,5 6,4 14 8 22 12 ENE 1022,7 20
31.05.2020 09:00:00 17,2 6,8 14 8 18 10 E 1022,7 20
31.05.2020 08:00:00 14,6 7,1 11 6 - - E 1022,3 25
31.05.2020 07:00:00 11,8 7,2 11 6 14 8 E 1022,2 20
31.05.2020 06:00:00 10,0 6,3 11 6 14 8 ENE 1021,8 20
31.05.2020 05:00:00 10,8 7,0 11 6 - - ENE 1021,6 20
31.05.2020 04:00:00 - - - - - - - - -
31.05.2020 03:00:00 - - - - - - - - -
31.05.2020 02:00:00 - - - - - - - - -
31.05.2020 01:00:00 - - - - - - - - -
31.05.2020 00:00:00 - - - - - - - - -
30.05.2020 23:00:00 16,3 11,0 22 12 - - NE 1021,2 20
30.05.2020 22:00:00 - - - - - - - - -
30.05.2020 21:00:00 - - - - - - - - -
30.05.2020 20:00:00 - - - - - - - - -
30.05.2020 19:00:00 - - - - - - - - -
30.05.2020 18:00:00 20,6 10,0 32 18 47 25 NNE 1021,1 20
30.05.2020 17:00:00 20,6 9,2 32 18 - - NNE 1021,2 20
30.05.2020 16:00:00 - - - - - - - - -
30.05.2020 15:00:00 - - - - - - - - -
30.05.2020 14:00:00 - - - - - - - - -
30.05.2020 13:00:00 - - - - - - - - -
30.05.2020 12:00:00 - - - - - - - - -
30.05.2020 11:00:00 - - - - - - - - -
30.05.2020 10:00:00 - - - - - - - - -
30.05.2020 09:00:00 - - - - - - - - -
30.05.2020 08:00:00 - - - - - - - - -
30.05.2020 07:00:00 11,3 9,1 4 2 7 4 N 1023,3 17
30.05.2020 06:00:00 9,3 8,0 7 4 11 6 E 1023,2 13
30.05.2020 05:00:00 10,0 8,5 7 4 - - ENE 1023,3 9
30.05.2020 04:00:00 11,8 9,9 11 6 18 10 ENE 1023,5 14
30.05.2020 03:00:00 12,6 10,3 11 6 18 10 NE 1023,7 16
30.05.2020 02:00:00 13,4 10,7 11 6 - - NE 1023,8 17
30.05.2020 01:00:00 13,5 11,9 11 6 18 10 NE 1024,0 13
30.05.2020 00:00:00 14,1 12,1 14 8 29 16 NNE 1024,2 14
29.05.2020 23:00:00 14,0 11,3 18 10 - - NNE 1024,2 17
29.05.2020 22:00:00 14,3 10,4 18 10 32 18 NNE 1024,4 20
29.05.2020 21:00:00 15,3 9,3 22 12 36 19 NNE 1024,2 20
29.05.2020 20:00:00 16,0 8,3 29 16 - - NNE 1024,5 20
29.05.2020 19:00:00 16,4 7,2 29 16 40 21 NE 1025,0 20
29.05.2020 18:00:00 17,0 8,6 29 16 40 21 NNE 1025,5 20
29.05.2020 17:00:00 18,0 9,3 29 16 - - NNE 1025,9 20
29.05.2020 16:00:00 18,3 8,7 29 16 43 23 NNE 1026,2 20
29.05.2020 15:00:00 18,9 8,4 29 16 40 21 NNE 1026,7 20
29.05.2020 14:00:00 19,2 8,7 25 14 - - NNE 1027,4 20
29.05.2020 13:00:00 18,9 9,9 25 14 32 18 NNE 1028,0 20
29.05.2020 12:00:00 20,2 8,2 14 8 29 16 NE 1028,4 20
29.05.2020 11:00:00 18,1 7,3 11 6 - - ENE 1028,7 20
29.05.2020 10:00:00 15,8 7,0 11 6 22 12 ENE 1029,0 20
29.05.2020 09:00:00 13,8 6,7 14 8 22 12 E 1029,0 20
29.05.2020 08:00:00 11,8 6,8 14 8 - - E 1029,0 20
29.05.2020 07:00:00 10,8 6,7 14 8 22 12 ENE 1029,4 20
29.05.2020 06:00:00 9,1 5,8 11 6 14 8 ENE 1029,5 20
29.05.2020 05:00:00 9,8 5,9 11 6 - - ENE 1029,5 20
29.05.2020 04:00:00 10,3 5,8 11 6 22 12 NE 1029,7 20
29.05.2020 03:00:00 11,1 6,5 14 8 22 12 ENE 1030,0 20
29.05.2020 02:00:00 12,5 7,8 14 8 - - ENE 1030,0 20
29.05.2020 01:00:00 13,3 9,3 14 8 25 14 NE 1030,4 20
29.05.2020 00:00:00 13,6 9,5 18 10 29 16 NE 1030,4 15
28.05.2020 23:00:00 14,1 9,3 22 12 - - NE 1030,5 15
28.05.2020 22:00:00 14,2 9,4 22 12 40 21 NE 1030,5 15
28.05.2020 21:00:00 14,8 9,3 25 14 47 25 NE 1030,7 15
28.05.2020 20:00:00 15,5 9,2 32 18 - - NNE 1030,7 15
28.05.2020 19:00:00 16,2 9,4 32 18 47 25 NNE 1031,2 15
28.05.2020 18:00:00 17,3 9,7 36 19 50 27 NNE 1031,5 15
28.05.2020 17:00:00 17,8 9,2 32 18 - - NNE 1031,9 15
28.05.2020 16:00:00 17,5 9,1 32 18 47 25 NNE 1032,4 15
28.05.2020 15:00:00 18,5 9,5 29 16 43 23 NNE 1032,7 15
28.05.2020 14:00:00 18,5 8,8 32 18 - - NNE 1033,2 15
28.05.2020 13:00:00 18,9 7,2 29 16 40 21 NNE 1033,7 15
28.05.2020 12:00:00 18,3 4,3 22 12 32 18 ENE 1034,0 15
28.05.2020 11:00:00 17,0 4,6 22 12 - - E 1034,5 15
28.05.2020 10:00:00 15,5 3,9 25 14 36 19 E 1034,7 20
28.05.2020 09:00:00 13,8 5,5 25 14 32 18 E 1035,0 20
28.05.2020 08:00:00 12,1 6,0 18 10 - - ENE 1034,9 20
28.05.2020 07:00:00 10,8 5,8 14 8 22 12 NE 1034,7 15
28.05.2020 06:00:00 10,3 5,9 14 8 25 14 NE 1034,7 20
28.05.2020 05:00:00 11,6 7,1 18 10 - - NE 1034,5 20
28.05.2020 04:00:00 12,6 10,1 14 8 22 12 NE 1034,4 20
28.05.2020 03:00:00 12,4 10,6 14 8 29 16 NNE 1034,7 17
28.05.2020 02:00:00 12,1 10,1 18 10 - - NNE 1035,0 18
28.05.2020 01:00:00 11,6 9,5 14 8 22 12 NNE 1035,2 20
28.05.2020 00:00:00 11,8 9,3 14 8 25 14 NNE 1035,4 20
27.05.2020 23:00:00 12,3 9,8 14 8 - - NNE 1035,2 20
27.05.2020 22:00:00 13,3 11,1 14 8 22 12 NNE 1035,0 20
27.05.2020 21:00:00 14,8 10,3 14 8 25 14 NE 1034,7 20
27.05.2020 20:00:00 15,8 9,7 18 10 - - NNE 1034,7 20
27.05.2020 19:00:00 16,9 9,6 18 10 29 16 NNE 1034,9 20
27.05.2020 18:00:00 18,0 9,5 22 12 32 18 NE 1035,0 20
27.05.2020 17:00:00 18,8 10,7 18 10 - - NNE 1035,2 20
27.05.2020 16:00:00 18,1 10,1 18 10 29 16 N 1035,4 25
27.05.2020 15:00:00 18,0 9,2 18 10 29 16 NNE 1035,5 25
27.05.2020 14:00:00 18,0 10,1 22 12 - - NNE 1035,5 25
27.05.2020 13:00:00 17,5 10,4 22 12 32 18 N 1035,7 25
27.05.2020 12:00:00 17,0 10,4 18 10 25 14 N 1035,7 25
27.05.2020 11:00:00 18,0 9,9 14 8 - - NNE 1035,5 25
27.05.2020 10:00:00 17,2 9,2 11 6 18 10 NE 1035,2 22
27.05.2020 09:00:00 16,1 9,5 14 8 18 10 NNE 1035,5 22
27.05.2020 08:00:00 - - - - - - - - -
27.05.2020 07:00:00 12,8 10,0 8 4 7 4 N 1035,4 10
27.05.2020 06:00:00 11,3 8,8 4 2 11 6 N 1035,2 20
27.05.2020 05:00:00 11,7 8,9 7 4 - - N 1035,0 20
27.05.2020 04:00:00 12,3 9,4 7 4 11 6 NNE 1035,0 20
27.05.2020 03:00:00 12,4 9,1 7 4 7 4 NNE 1035,0 20
27.05.2020 02:00:00 12,8 8,1 7 4 - - NNE 1035,0 20
27.05.2020 01:00:00 13,1 8,2 7 4 14 8 NNE 1035,4 20
27.05.2020 00:00:00 13,3 8,3 7 4 18 10 NE 1035,5 20
26.05.2020 23:00:00 15,0 9,5 11 6 - - NE 1035,5 20
26.05.2020 22:00:00 16,2 9,0 14 8 18 10 NNE 1035,2 20
26.05.2020 21:00:00 17,0 10,4 11 6 14 8 NNE 1035,0 20
26.05.2020 20:00:00 19,6 6,4 7 4 - - N 1034,9 20
26.05.2020 19:00:00 19,8 7,1 11 6 22 12 N 1035,0 20
26.05.2020 18:00:00 - - - - - - - - -
26.05.2020 17:00:00 19,9 9,6 18 10 - - N 1035,4 28
26.05.2020 16:00:00 20,1 9,9 18 10 22 12 NNW 1035,4 22
26.05.2020 15:00:00 20,1 9,5 14 8 22 12 N 1035,5 22
26.05.2020 14:00:00 19,9 11,8 11 6 - - NNW 1036,0 26
26.05.2020 13:00:00 19,7 10,9 11 6 18 10 NW 1035,9 26
26.05.2020 12:00:00 19,6 9,9 22 12 14 8 NW 1036,0 25
26.05.2020 11:00:00 20,6 7,8 7 4 - - WSW 1035,7 25
26.05.2020 10:00:00 18,8 9,8 7 4 14 8 SW 1035,7 22
26.05.2020 09:00:00 16,7 10,8 14 8 11 6 SW 1035,7 15
26.05.2020 08:00:00 16,7 10,8 14 8 - - SW 1035,7 15
26.05.2020 07:00:00 9,0 7,5 4 2 4 2 N 1035,5 12
26.05.2020 06:00:00 8,1 7,0 4 2 7 4 N 1035,2 14
26.05.2020 05:00:00 8,6 7,1 4 2 - - N 1035,0 9
26.05.2020 04:00:00 9,2 7,3 4 2 4 2 N 1035,2 19
26.05.2020 03:00:00 10,0 7,7 4 2 0 0 N 1035,2 17
26.05.2020 02:00:00 10,5 7,7 4 2 - - N 1035,2 19
26.05.2020 01:00:00 12,0 8,9 0 0 4 2 N 1035,0 20

tt = Température de l'air
td = dewpoint
ff = Vitesse du vent
fx = gusts
dd = Direction du vent
ppp = reduced air pressure
vv = visibility

stations d'obs. à proximité